{"data":{"norad_id":63805,"intl_designator":"2025-092B","name":"STARLINK-34029","alt_names":[],"object_type":"PAYLOAD","status":"ACTIVE","operator":null,"country":"US","launch_date":"2025-05-04","launch_site_code":"AFETR","launch_vehicle":null,"mission":null,"orbit_class":"UNKNOWN","rcs_meters":null,"size_class":null,"mass_kg":null,"dimensions":null,"purposes":["comms"],"wikipedia_slug":null,"has_3d_model":false,"image_url":null,"decayed_at":null,"tle_current":{"epoch":"2026-09-20T00:55:22.114560Z","epoch_age_seconds":189713,"freshness":"STALE","line1":"1 63805U 25092B   26263.03845040  .00012055  00000+0  44667-3 0  9995","line2":"2 63805  43.0024 155.3221 0001575 269.8252  90.2419 15.27593858 78337","mean_motion":15.27593858,"eccentricity":0.0001575,"inclination_deg":43.0024,"raan_deg":155.3221,"arg_perigee_deg":269.8252,"mean_anomaly_deg":90.2419,"bstar":0.00044667,"rev_number":7833,"period_min":94.265893546163,"perigee_km":481.92697024138,"apogee_km":484.08823079055,"semimajor_km":6861.144600516,"source":"CELESTRAK","updated_at":"2026-09-21T09:00:35.103914Z"}}}